TimeEST,TemperatureF,Dew PointF,Humidity,Sea Level PressureIn,VisibilityMPH,Wind Direction,Wind SpeedMPH,Gust SpeedMPH,PrecipitationIn,Events,Conditions,WindDirDegrees,DateUTC
12:40 AM,33.8,33.8,100,30.18,7.0,Calm,Calm,-,N/A,,Clear,0,2012-11-23 05:40:00
1:01 AM,33.8,33.8,100,30.17,7.0,Calm,Calm,-,N/A,,Clear,0,2012-11-23 06:01:00
1:23 AM,35.6,35.6,100,30.17,10.0,Calm,Calm,-,N/A,,Clear,0,2012-11-23 06:23:00
1:44 AM,34.5,34.5,100,30.17,10.0,Calm,Calm,-,N/A,,Clear,0,2012-11-23 06:44:00
2:05 AM,34.0,34.0,100,30.16,7.0,Calm,Calm,-,N/A,,Clear,0,2012-11-23 07:05:00
2:27 AM,34.5,34.5,100,30.16,7.0,Calm,Calm,-,N/A,,Clear,0,2012-11-23 07:27:00
2:48 AM,33.4,33.4,100,30.15,10.0,Calm,Calm,-,N/A,,Scattered Clouds,0,2012-11-23 07:48:00
3:09 AM,34.3,34.3,100,30.14,7.0,Calm,Calm,-,N/A,,Overcast,0,2012-11-23 08:09:00
3:30 AM,34.2,34.2,100,30.14,0.5,Calm,Calm,-,N/A,Fog,Fog,0,2012-11-23 08:30:00
3:52 AM,34.5,34.5,100,30.13,0.2,Calm,Calm,-,N/A,Fog,Fog,0,2012-11-23 08:52:00
4:13 AM,34.7,34.7,100,30.13,0.2,Calm,Calm,-,N/A,Fog,Fog,0,2012-11-23 09:13:00
4:34 AM,34.9,34.9,100,30.13,0.2,Calm,Calm,-,N/A,Fog,Fog,0,2012-11-23 09:34:00
4:56 AM,35.6,35.6,100,30.12,0.2,Calm,Calm,-,N/A,Fog,Fog,0,2012-11-23 09:56:00
5:17 AM,36.1,36.1,100,30.12,0.2,Calm,Calm,-,N/A,Fog,Fog,0,2012-11-23 10:17:00
5:38 AM,35.8,35.8,100,30.12,0.2,Calm,Calm,-,N/A,Fog,Fog,0,2012-11-23 10:38:00
5:53 AM,35.6,35.6,100,30.12,0.2,Calm,Calm,-,N/A,Fog,Fog,0,2012-11-23 10:53:00
6:00 AM,34.9,34.9,100,30.12,0.2,Calm,Calm,-,N/A,Fog,Fog,0,2012-11-23 11:00:00
6:21 AM,35.6,35.6,100,30.11,0.2,Calm,Calm,-,N/A,Fog,Fog,0,2012-11-23 11:21:00
6:38 AM,35.6,35.6,100,30.11,0.2,Calm,Calm,-,N/A,Fog,Fog,0,2012-11-23 11:38:00
6:56 AM,35.6,35.6,100,30.11,0.1,North,-9999.0,-,N/A,Fog,Fog,0,2012-11-23 11:56:00
7:53 AM,35.6,35.6,100,30.09,0.2,Calm,Calm,-,N/A,Fog,Fog,0,2012-11-23 12:53:00
8:53 AM,39.2,39.2,100,30.08,0.2,South,3.5,-,N/A,Fog,Fog,170,2012-11-23 13:53:00
9:53 AM,42.8,42.8,100,30.07,6.0,SSW,5.8,-,N/A,,Haze,210,2012-11-23 14:53:00
10:53 AM,53.6,46.4,77,30.01,10.0,SSW,9.2,-,N/A,,Partly Cloudy,200,2012-11-23 15:53:00
11:50 AM,55.4,44.6,67,29.98,10.0,SW,9.2,-,N/A,,Scattered Clouds,230,2012-11-23 16:50:00
12:54 PM,57.2,42.8,59,29.94,10.0,SW,8.1,-,N/A,,Scattered Clouds,220,2012-11-23 17:54:00
1:49 PM,60.8,39.2,45,29.90,10.0,South,9.2,-,N/A,,Scattered Clouds,190,2012-11-23 18:49:00
2:50 PM,59.0,39.2,48,29.86,10.0,SSW,10.4,-,N/A,,Scattered Clouds,200,2012-11-23 19:50:00
3:45 PM,55.4,42.8,63,29.84,10.0,South,9.2,-,N/A,,Mostly Cloudy,190,2012-11-23 20:45:00
4:52 PM,51.8,44.6,76,29.84,10.0,South,5.8,-,N/A,,Mostly Cloudy,170,2012-11-23 21:52:00
5:50 PM,50.0,44.6,82,29.83,10.0,South,5.8,-,N/A,,Scattered Clouds,180,2012-11-23 22:50:00
6:55 PM,50.0,44.6,82,29.82,10.0,Calm,Calm,-,N/A,,Mostly Cloudy,0,2012-11-23 23:55:00
7:50 PM,50.0,44.6,82,29.81,10.0,Calm,Calm,-,N/A,,Mostly Cloudy,0,2012-11-24 00:50:00
8:51 PM,46.4,44.6,93,29.83,10.0,Calm,Calm,-,N/A,,Clear,0,2012-11-24 01:51:00
9:56 PM,45.9,43.7,92,29.81,10.0,Calm,Calm,-,N/A,,Mostly Cloudy,0,2012-11-24 02:56:00
10:17 PM,44.4,43.5,97,29.81,10.0,Calm,Calm,-,N/A,,Scattered Clouds,0,2012-11-24 03:17:00
10:38 PM,47.5,43.5,86,29.81,10.0,NW,10.4,-,N/A,,Scattered Clouds,320,2012-11-24 03:38:00
11:00 PM,50.2,41.7,73,29.81,10.0,NNW,9.2,-,N/A,,Mostly Cloudy,330,2012-11-24 04:00:00
11:21 PM,50.4,40.3,68,29.81,10.0,NW,16.1,23.0,N/A,,Scattered Clouds,320,2012-11-24 04:21:00
11:42 PM,50.9,37.0,59,29.81,10.0,NNW,18.4,-,N/A,,Scattered Clouds,330,2012-11-24 04:42:00